Tracking 19794 objects as of 21-Jul-2019
HD Live streaming from Space Station
objects crossing your sky now

FENGYUN 1C DEB

Track FENGYUN 1C DEB now!
10-day predictions


NORAD ID: 31988
Int'l Code: 1999-025CPR
Perigee: 831.8 km
Apogee: 938.8 km
Inclination: 98.1 °
Period: 102.5 minutes
Semi major axis: 7256 km
RCS: 0.0166 m2 (small)
Launch date: May 10, 1999
Source: People's Republic of China (PRC)
Launch site: Taiyaun Space Center, China (TSC)

Note: This is SATELLITE DEBRIS
aabbcc
Your satellite tracking list
Your tracking list is empty




NASA's NSSDC Master Catalog

Two Line Element Set (TLE):
1 31988U 99025CPR 19200.97685997  .00000294  00000-0  20241-3 0  9993
2 31988  98.1480 106.1791 0073733 174.5090 185.6905 14.04518916617574
Source of the keplerian elements: AFSPC